Wetbulb
65.47 65.65 65.15 63.66 63.89 65.76 66.50 65.74 64.70 64.19 63.49 63.08 63.80 63.89 64.22 64.46 64.82 65.20 65.48 67.02 68.11 68.48 69.13 69.04 69.72 69.66 69.90 70.06 71.01 71.82 72.12 71.75 71.38 70.97 70.15 70.34 70.32 70.20 70.61 70.90 69.92 70.30 69.35
64.99 64.20 63.74 63.11 63.16 63.95 64.93 65.17 63.63 62.92 62.35 62.97 63.23 63.47 64.00 64.41 64.45 65.27 65.58 65.36 67.03 68.06 69.05 69.22 69.75 70.04 69.41 69.04 69.64 70.87 71.32 70.98 71.15 70.33 70.26 70.43 69.64 69.95 70.20 70.39 70.04 69.34 69.04
64.44 64.10 63.33 62.73 63.31 63.91 63.92 63.43 63.19 63.06 62.78 62.95 62.96 63.52 63.47 63.67 63.71 63.52 64.00 65.19 65.13 66.86 68.20 69.52 69.61 69.37 68.97 69.05 69.04 69.39 70.83 71.24 70.62 70.36 69.72 69.66 69.58 69.93 70.21 70.32 70.04 69.33 69.07
64.54 63.69 62.97 62.85 63.14 63.73 63.16 63.12 62.87 62.23 62.51 62.75 62.22 62.64 63.29 63.29 63.36 63.65 63.61 63.84 64.42 66.23 67.19 69.13 69.38 68.96 69.15 68.91 68.84 69.31 70.71 70.97 70.71 69.66 69.62 69.42 69.15 69.83 69.75 69.87 69.74 69.22 68.92
64.97 64.27 63.61 63.90 64.60 64.00 63.43 62.94 62.27 62.68 62.14 61.64 61.60 62.02 62.08 62.37 62.58 62.78 62.88 63.42 64.14 66.46 66.02 68.06 68.54 68.79 69.30 68.86 68.52 69.35 69.87 70.74 70.67 70.09 69.59 69.90 69.48 68.65 68.70 69.29 69.64 69.05 68.05
65.57 64.56 64.21 64.17 64.27 63.41 62.92 62.60 62.73 62.20 62.07 61.13 60.88 61.27 61.39 61.98 62.01 61.95 62.71 62.78 63.57 64.70 65.64 64.57 66.79 67.17 68.15 68.33 68.58 69.38 69.08 69.60 70.63 70.60 69.95 69.13 69.42 68.81 68.60 68.45 68.99 68.59 67.07
65.66 64.65 64.18 63.77 63.31 63.43 63.28 63.08 62.49 61.65 61.20 61.58 59.57 59.12 59.08 60.53 60.89 61.50 62.63 62.54 62.79 63.69 63.86 63.31 64.59 64.99 65.72 67.72 67.95 69.81 69.03 69.30 70.14 70.65 69.59 68.95 68.71 69.02 69.02 68.84 68.82 67.78 66.42
65.32 64.93 64.22 63.54 63.13 62.70 62.83 62.08 61.18 59.70 60.16 60.51 58.11 56.08 55.43 57.61 59.17 60.84 62.11 62.08 62.34 63.31 63.45 63.91 64.18 64.51 65.34 65.61 66.76 69.02 69.34 69.11 69.50 70.55 68.97 68.73 68.77 69.05 68.98 68.94 68.42 66.10 63.92
65.48 65.02 64.17 63.57 62.92 63.02 62.11 61.06 60.70 59.77 58.65 58.05 58.54 57.34 53.66 53.00 55.21 59.36 60.82 61.66 61.56 61.49 63.06 62.92 63.73 64.59 65.06 65.44 65.18 66.99 69.17 69.24 68.96 70.02 69.40 68.28 68.89 68.67 68.65 68.28 66.82 64.48 65.12
65.03 64.53 63.84 63.31 62.88 62.29 61.26 60.73 60.31 59.43 58.75 57.41 57.47 57.93 57.22 56.71 54.56 53.93 57.55 59.25 61.06 60.42 61.08 62.33 63.38 64.15 64.77 65.66 65.62 66.31 67.28 68.11 68.65 69.26 69.58 68.92 68.98 68.50 68.53 66.80 64.66 63.56 62.16
64.25 63.78 63.24 63.13 62.64 61.67 61.05 60.30 59.79 59.23 58.71 58.51 57.31 56.36 56.86 56.90 58.12 56.68 54.04 55.84 58.41 59.33 60.91 61.59 62.80 63.40 64.40 65.04 65.51 65.82 65.10 65.95 66.67 67.89 68.54 68.99 68.87 67.66 65.31 64.75 62.97 62.84 62.86
62.20 62.85 63.09 62.52 61.33 60.82 60.09 60.18 60.40 59.60 59.27 58.61 57.91 57.21 57.16 56.56 56.33 57.42 55.42 54.02 55.32 58.43 60.58 61.74 61.86 62.58 63.81 64.88 64.86 64.28 63.76 63.61 63.70 64.60 65.52 66.62 65.81 65.19 63.86 63.30 63.54 62.88 62.77
60.48 61.28 60.97 60.48 60.29 60.21 60.61 60.75 60.22 59.97 59.73 58.61 58.45 57.61 57.91 57.84 58.89 59.17 56.54 54.64 54.90 58.25 59.71 61.61 62.28 63.01 63.11 64.63 65.48 65.44 64.80 62.45 62.12 62.53 63.72 63.93 63.67 63.78 63.41 64.55 62.98 62.08 64.17
59.78 60.40 60.75 60.15 59.76 60.58 60.73 60.76 60.31 60.22 59.73 59.17 59.11 58.35 58.21 58.85 59.44 58.00 56.65 55.73 55.70 57.38 58.27 58.73 61.79 63.54 63.85 65.11 65.10 64.56 65.30 61.65 61.50 61.77 61.68 61.96 62.07 62.55 63.12 62.23 63.24 63.71 64.01
59.86 59.78 59.97 59.68 60.02 60.73 61.23 61.23 60.74 60.80 60.42 59.80 59.71 58.76 58.27 58.67 59.55 58.91 59.37 59.12 58.46 54.18 55.04 58.70 60.20 64.11 64.66 65.79 65.92 65.34 64.02 61.67 61.80 60.63 60.55 60.15 60.37 60.45 60.86 61.10 61.53 61.89 62.16
59.67 59.50 59.32 59.74 60.45 61.22 61.61 61.42 60.96 60.49 60.00 59.70 60.18 59.48 58.60 59.00 58.98 59.89 59.21 58.84 59.17 57.77 54.70 59.63 60.23 62.31 64.82 65.03 65.40 64.86 64.20 61.88 59.85 59.37 59.97 59.36 58.56 58.79 59.31 59.39 59.37 60.26 60.65
58.92 59.45 59.72 59.77 60.32 60.72 61.22 60.69 60.64 60.44 59.84 59.72 60.12 60.16 60.20 59.89 59.48 59.45 59.51 59.10 59.00 58.80 56.33 59.06 60.86 61.65 59.80 60.14 61.59 62.41 62.48 61.36 60.09 59.27 59.32 58.23 57.27 57.16 57.54 57.65 57.99 58.58 59.37
59.02 59.84 60.13 60.19 60.34 60.49 61.03 60.52 60.54 61.14 59.79 60.09 60.28 60.36 60.40 60.29 59.92 59.93 59.71 59.13 58.92 59.29 58.36 57.89 58.25 57.37 57.55 59.20 58.79 58.75 59.56 60.53 59.60 59.02 57.68 56.74 55.73 55.41 55.27 55.38 56.05 55.99 55.65
58.68 59.16 59.25 59.98 61.26 61.22 60.88 60.83 60.81 61.31 60.26 60.31 60.62 60.42 60.62 60.08 59.20 59.28 59.49 58.81 59.31 59.78 60.58 57.52 55.48 56.70 57.15 57.67 57.35 57.97 57.37 57.41 58.13 58.23 56.42 55.65 55.24 54.70 54.40 54.33 53.71 52.87 52.02
58.18 59.24 61.37 61.47 61.71 61.56 61.85 62.41 62.08 60.92 59.97 60.55 61.14 61.15 60.90 60.25 59.52 59.80 59.40 59.08 59.31 58.88 58.02 55.98 54.98 54.72 55.68 56.83 56.43 55.42 55.40 56.87 56.26 57.64 56.85 55.76 55.86 54.64 53.60 53.47 53.67 52.76 50.41
58.41 61.71 61.00 60.00 59.87 59.90 57.54 59.19 60.92 60.63 60.00 59.84 61.46 60.94 61.28 60.18 59.03 58.81 59.43 59.03 59.15 57.73 56.50 55.37 54.48 53.95 53.63 53.99 53.82 54.74 54.07 55.24 55.52 56.24 55.66 55.82 55.38 54.52 54.34 54.21 55.36 53.15 49.81
60.51 61.59 60.18 59.02 58.42 57.74 47.32 51.33 57.73 61.35 60.40 60.06 59.72 59.29 59.44 57.38 55.85 53.71 54.49 55.25 57.84 57.55 55.96 54.97 54.38 53.50 53.90 54.36 54.60 54.12 53.80 52.82 51.50 56.56 53.26 50.62 53.39 50.74 53.25 55.58 50.67 48.86 48.08
61.09 60.00 58.49 57.95 57.14 57.13 45.31 49.51 52.96 60.67 60.31 60.23 59.65 58.97 58.11 57.20 57.04 56.38 52.40 52.57 52.13 52.73 54.99 56.67 55.01 54.86 54.71 55.33 55.09 53.93 54.04 54.07 52.47 53.27 53.31 47.90 50.15 49.41 49.38 50.16 47.55 46.87 46.37
60.44 59.31 57.43 56.69 57.34 55.03 46.25 50.24 51.51 61.40 60.13 59.59 59.29 58.51 57.73 57.45 56.78 58.06 58.48 58.07 58.12 57.70 57.95 58.15 57.25 56.97 56.73 57.20 56.70 55.86 54.80 54.14 52.33 51.42 54.06 47.57 47.31 47.01 46.90 49.12 46.76 45.93 44.97
59.47 57.97 56.69 56.35 57.93 57.43 46.61 48.97 56.44 60.13 59.81 59.43 59.56 59.24 58.94 57.75 47.79 49.40 57.68 56.86 56.24 54.82 50.90 48.93 48.57 47.50 46.98 48.50 53.05 55.34 53.97 52.98 51.17 50.85 49.98 50.15 47.40 46.16 46.74 47.34 48.10 45.69 44.40
58.13 57.81 56.40 57.34 53.90 57.51 45.71 47.70 56.85 60.27 58.71 58.05 58.27 57.22 50.65 54.19 45.53 48.86 57.71 56.70 55.60 55.54 55.92 55.77 54.55 51.55 52.33 50.85 51.14 56.55 56.30 53.37 51.86 51.23 51.77 50.60 47.18 46.83 46.55 46.65 46.86 47.60 47.27
MSLP
1009.04 1009.62 1010.11 1010.49 1010.98 1011.13 1011.21 1011.71 1011.89 1012.12 1012.32 1012.50 1012.65 1012.85 1012.93 1012.98 1013.09 1013.19 1013.18 1013.25 1013.05 1013.19 1013.33 1013.39 1013.41 1013.71 1013.88 1014.09 1014.25 1014.46 1014.66 1014.99 1015.41 1015.86 1016.35 1016.65 1016.92 1017.13 1017.48 1017.79 1018.22 1018.71 1019.13
1008.73 1009.36 1009.78 1010.57 1010.60 1011.16 1011.32 1011.46 1011.93 1012.10 1012.17 1012.30 1012.44 1012.47 1012.56 1012.64 1012.69 1012.78 1012.79 1012.85 1012.85 1012.78 1012.92 1012.93 1013.00 1013.26 1013.54 1013.82 1014.04 1014.21 1014.54 1014.87 1015.20 1015.60 1015.78 1015.95 1016.41 1017.00 1017.37 1017.57 1018.10 1018.70 1019.22
1007.91 1008.96 1009.56 1010.46 1010.80 1011.07 1011.20 1011.39 1011.74 1011.91 1012.17 1012.18 1012.21 1012.28 1012.38 1012.35 1012.44 1012.52 1012.55 1012.54 1012.55 1012.42 1012.45 1012.42 1012.64 1013.08 1013.41 1013.60 1013.79 1014.01 1014.31 1014.70 1015.02 1015.33 1015.32 1015.66 1015.83 1016.47 1016.93 1017.45 1017.98 1018.66 1019.37
1007.32 1008.35 1008.95 1009.38 1009.74 1009.97 1010.56 1011.19 1011.48 1011.77 1011.95 1012.07 1012.10 1012.12 1012.15 1012.12 1012.10 1012.27 1012.20 1012.27 1012.29 1012.29 1012.13 1012.15 1012.46 1012.82 1013.16 1013.38 1013.59 1013.78 1014.16 1014.52 1014.89 1015.22 1015.26 1015.40 1015.35 1016.39 1016.73 1017.57 1018.07 1018.70 1019.19
1006.77 1007.58 1008.14 1008.60 1008.88 1010.01 1010.37 1010.55 1011.15 1011.38 1011.64 1011.83 1011.93 1011.96 1011.90 1011.86 1011.84 1011.83 1012.05 1012.06 1012.06 1012.12 1012.07 1012.00 1012.25 1012.65 1012.87 1013.21 1013.44 1013.51 1013.88 1014.24 1014.69 1015.09 1015.21 1015.28 1015.72 1016.04 1017.09 1017.78 1018.17 1018.70 1019.40
1006.34 1006.97 1007.67 1008.24 1009.04 1009.88 1010.21 1010.40 1010.77 1011.10 1011.54 1011.78 1011.89 1011.74 1011.56 1011.51 1011.54 1011.69 1011.79 1011.72 1011.80 1011.94 1011.96 1012.32 1012.38 1012.56 1012.77 1013.05 1013.25 1013.39 1013.68 1014.05 1014.55 1014.87 1015.18 1015.67 1016.18 1016.77 1017.40 1017.84 1018.09 1018.74 1019.49
1005.79 1006.36 1007.34 1007.81 1008.39 1009.47 1009.75 1010.13 1010.54 1011.17 1011.55 1011.61 1011.72 1011.46 1011.19 1011.17 1011.21 1011.35 1011.46 1011.53 1011.57 1011.64 1011.90 1012.14 1012.47 1012.60 1012.76 1012.87 1013.15 1013.37 1013.59 1013.95 1014.35 1014.62 1014.95 1015.45 1016.01 1016.55 1017.15 1017.60 1018.20 1018.86 1019.57
1005.37 1006.04 1006.86 1007.85 1008.13 1009.10 1009.75 1010.04 1010.52 1011.01 1011.24 1011.38 1011.54 1011.72 1011.48 1011.21 1011.07 1011.12 1011.21 1011.29 1011.34 1011.58 1011.75 1011.98 1012.43 1012.56 1012.78 1012.83 1013.05 1013.29 1013.54 1013.87 1014.09 1014.39 1014.83 1015.18 1015.83 1016.36 1017.05 1017.71 1018.48 1019.13 1020.12
1005.20 1005.63 1006.18 1007.17 1008.09 1008.77 1009.32 1009.84 1010.19 1010.55 1010.90 1011.23 1011.31 1011.45 1011.61 1011.46 1011.33 1011.17 1011.13 1011.24 1011.37 1011.56 1011.73 1011.83 1012.09 1012.32 1012.60 1012.77 1013.00 1013.24 1013.48 1013.79 1014.02 1014.20 1014.78 1015.15 1015.65 1016.28 1017.03 1017.90 1018.77 1020.11 1020.44
1005.29 1005.87 1006.13 1006.94 1007.83 1008.44 1009.09 1009.45 1009.79 1010.13 1010.52 1010.85 1011.25 1011.26 1011.28 1011.32 1011.32 1011.39 1011.40 1011.43 1011.48 1011.59 1011.83 1011.80 1011.95 1012.10 1012.40 1012.64 1012.82 1013.01 1013.20 1013.56 1013.82 1014.14 1014.59 1015.11 1015.60 1016.39 1017.13 1017.97 1019.11 1020.40 1020.06
1005.32 1005.90 1006.23 1006.88 1007.55 1008.25 1008.75 1009.11 1009.45 1009.82 1010.17 1010.42 1010.62 1010.93 1011.20 1011.31 1011.27 1011.24 1011.50 1011.55 1011.55 1011.72 1011.92 1011.87 1011.91 1012.07 1012.25 1012.49 1012.60 1012.76 1013.02 1013.31 1013.59 1014.03 1014.70 1015.17 1015.66 1016.76 1017.63 1018.62 1019.64 1020.30 1021.11
1005.81 1006.04 1006.25 1006.86 1007.52 1008.00 1008.53 1008.87 1009.15 1009.50 1009.79 1009.98 1010.18 1010.41 1010.63 1010.90 1011.04 1011.05 1011.48 1011.56 1011.66 1012.01 1011.96 1011.94 1011.98 1012.03 1012.18 1012.34 1012.51 1012.63 1012.87 1013.20 1013.50 1013.99 1014.71 1015.51 1016.24 1017.25 1018.31 1019.10 1019.88 1020.66 1020.96
1005.75 1006.03 1006.30 1006.98 1007.43 1007.94 1008.43 1008.61 1008.92 1009.17 1009.46 1009.68 1009.74 1010.03 1010.33 1010.38 1010.45 1010.69 1011.07 1011.73 1011.91 1011.96 1011.95 1012.02 1012.05 1011.98 1012.16 1012.23 1012.28 1012.43 1012.70 1013.04 1013.47 1014.06 1015.02 1015.82 1016.62 1017.54 1018.45 1019.10 1019.83 1020.41 1020.70
1005.76 1006.14 1006.53 1007.03 1007.59 1008.00 1008.23 1008.44 1008.75 1008.95 1009.17 1009.34 1009.43 1009.76 1009.96 1010.06 1010.17 1010.30 1010.58 1011.20 1011.70 1011.82 1012.00 1011.97 1011.94 1011.93 1012.04 1012.15 1012.22 1012.46 1012.70 1013.11 1013.53 1014.19 1015.13 1016.06 1016.98 1017.75 1018.50 1019.32 1019.95 1020.44 1020.92
1005.86 1006.31 1006.81 1007.30 1007.58 1007.82 1008.08 1008.30 1008.48 1008.62 1008.77 1009.02 1009.13 1009.45 1009.65 1009.69 1009.80 1009.88 1010.28 1010.53 1010.90 1011.62 1011.99 1011.99 1011.89 1011.89 1011.91 1012.12 1012.19 1012.46 1012.84 1013.32 1013.73 1014.53 1015.29 1016.34 1017.40 1018.06 1018.85 1019.56 1020.35 1020.92 1021.24
1006.02 1006.51 1006.91 1007.17 1007.42 1007.61 1007.79 1007.98 1008.06 1008.27 1008.50 1008.64 1008.77 1009.04 1009.21 1009.27 1009.42 1009.77 1010.12 1010.49 1010.72 1011.00 1011.67 1011.88 1012.07 1012.11 1012.08 1012.16 1012.41 1012.69 1013.01 1013.57 1014.22 1015.21 1015.84 1016.31 1017.80 1018.82 1019.31 1020.02 1020.64 1021.26 1021.66
1006.04 1006.46 1006.78 1007.02 1007.23 1007.43 1007.51 1007.66 1007.77 1008.05 1008.09 1008.31 1008.44 1008.53 1008.62 1008.88 1009.08 1009.48 1009.88 1010.23 1010.61 1010.89 1011.36 1011.98 1012.16 1012.29 1012.63 1012.75 1013.04 1013.27 1013.63 1014.23 1015.03 1015.57 1016.78 1017.06 1018.58 1019.24 1019.93 1020.62 1021.05 1021.65 1022.03
1006.09 1006.43 1006.69 1006.85 1006.98 1007.11 1007.22 1007.34 1007.43 1007.43 1007.74 1007.92 1008.02 1008.13 1008.28 1008.61 1008.90 1009.27 1009.70 1010.05 1010.38 1010.72 1011.05 1011.92 1012.38 1012.77 1013.23 1013.42 1013.66 1013.97 1014.39 1015.10 1015.92 1016.65 1017.52 1018.25 1019.21 1019.93 1020.53 1021.24 1021.42 1022.00 1022.44
1006.24 1006.47 1006.55 1006.80 1006.88 1006.96 1007.08 1007.14 1007.13 1007.23 1007.45 1007.60 1007.69 1007.82 1008.05 1008.42 1008.93 1009.31 1009.65 1009.98 1010.29 1010.78 1011.24 1011.89 1012.71 1013.30 1013.76 1013.96 1014.35 1014.90 1015.47 1016.27 1016.89 1017.88 1018.69 1019.16 1019.82 1020.66 1021.16 1021.48 1021.89 1022.39 1022.78
1006.28 1006.42 1006.53 1006.69 1006.90 1007.05 1007.09 1007.04 1007.08 1007.12 1007.33 1007.50 1007.52 1007.62 1007.97 1008.41 1008.79 1009.19 1009.56 1009.95 1010.32 1010.87 1011.56 1012.24 1013.09 1013.71 1014.25 1014.88 1014.90 1015.41 1016.32 1017.21 1018.20 1019.12 1019.89 1020.44 1020.65 1021.29 1021.69 1022.04 1022.30 1022.68 1023.11
1006.24 1006.48 1006.66 1006.87 1007.07 1007.15 1007.39 1007.39 1007.23 1007.24 1007.33 1007.53 1007.54 1007.69 1008.02 1008.40 1008.72 1009.15 1009.42 1009.94 1010.27 1010.81 1011.55 1012.44 1013.27 1014.02 1014.69 1015.19 1015.35 1016.14 1016.70 1017.78 1018.99 1019.35 1020.35 1021.04 1021.46 1021.92 1022.41 1022.56 1022.75 1023.02 1023.54
1006.26 1006.47 1006.72 1007.04 1007.27 1007.45 1007.77 1007.61 1007.33 1007.40 1007.44 1007.57 1007.73 1008.02 1008.53 1008.84 1009.20 1009.55 1009.80 1010.15 1010.39 1010.75 1011.47 1012.27 1013.18 1013.90 1014.70 1015.39 1015.98 1016.46 1017.24 1018.28 1019.43 1020.33 1020.79 1021.72 1022.01 1022.47 1022.82 1022.90 1023.22 1023.47 1023.80
1006.32 1006.62 1006.98 1007.26 1007.49 1007.73 1007.87 1007.48 1007.45 1007.52 1007.56 1007.73 1008.01 1008.37 1008.83 1009.32 1009.52 1009.92 1010.26 1010.53 1010.87 1011.39 1011.75 1012.22 1013.00 1013.85 1014.66 1015.37 1015.98 1016.89 1017.83 1018.44 1019.13 1020.21 1020.61 1022.23 1022.76 1023.18 1023.47 1023.55 1023.71 1023.77 1023.97
1006.50 1006.82 1007.23 1007.60 1007.70 1008.07 1007.86 1007.70 1007.70 1007.70 1007.85 1007.99 1008.23 1008.43 1008.95 1009.51 1009.84 1010.09 1010.51 1010.96 1011.42 1012.00 1012.47 1012.86 1013.43 1014.29 1015.01 1015.86 1016.35 1017.09 1017.76 1018.66 1019.86 1020.74 1020.95 1022.23 1023.15 1023.54 1023.91 1023.88 1023.98 1024.08 1024.35
1006.76 1007.08 1007.50 1007.77 1007.80 1008.12 1008.05 1007.97 1007.94 1008.03 1008.17 1008.37 1008.60 1008.94 1009.37 1009.91 1010.28 1010.46 1010.83 1011.41 1012.01 1012.85 1013.20 1013.66 1014.35 1015.03 1015.72 1016.29 1016.69 1017.22 1018.19 1018.69 1020.03 1020.96 1021.47 1021.87 1022.97 1023.37 1023.66 1023.80 1024.08 1024.45 1024.70
1007.04 1007.35 1007.70 1007.86 1008.12 1008.28 1008.38 1008.24 1008.25 1008.40 1008.54 1008.80 1009.25 1009.64 1009.97 1010.53 1010.80 1011.06 1011.36 1011.84 1012.47 1013.30 1013.91 1014.69 1015.64 1016.26 1016.48 1017.11 1017.30 1017.37 1017.74 1018.44 1019.59 1020.78 1021.38 1021.84 1022.74 1022.93 1023.30 1023.65 1023.90 1024.22 1024.55
Wind_Speed
8 6 5 5 4 3 4 4 4 4 4 4 4 6 6 6 6 5 4 12 13 12 14 15 13 14 12 9 8 9 11 12 15 14 12 11 9 7 13 14 13 12 10
6 6 6 5 4 3 3 3 3 4 4 4 5 6 7 6 5 6 5 5 11 12 13 15 16 15 13 11 9 9 10 11 14 15 15 14 12 8 10 13 14 14 14
10 8 6 4 3 3 5 2 3 2 3 3 6 4 5 6 5 5 4 4 5 10 11 13 11 13 12 12 11 10 9 10 13 14 16 13 13 14 10 11 14 17 16
12 8 8 6 7 7 5 3 3 3 4 3 3 4 4 4 6 6 4 4 4 4 7 11 11 12 13 12 11 11 11 10 9 12 17 19 15 14 13 11 16 19 20
13 10 8 8 7 3 2 5 2 3 3 3 4 4 5 5 6 4 5 6 6 4 4 9 11 10 11 10 11 12 12 10 9 10 15 13 14 13 12 10 16 21 23
12 10 8 5 5 4 4 3 3 2 2 2 5 5 5 5 4 5 6 5 5 5 4 4 3 5 8 8 9 11 9 10 10 10 12 17 18 17 15 13 17 23 24
12 11 6 7 7 6 5 5 3 3 3 3 2 3 3 5 6 5 4 5 5 5 4 4 3 3 3 8 9 8 9 10 11 10 9 14 19 17 14 16 19 24 23
10 11 8 7 8 5 5 4 4 3 3 3 2 0 2 2 1 4 4 4 6 3 5 6 5 5 4 3 5 9 9 9 10 11 9 15 18 17 16 18 21 26 24
10 10 10 9 7 5 5 5 5 5 3 2 5 2 1 2 1 1 2 1 3 3 3 4 5 5 5 4 5 7 9 7 8 10 10 15 18 17 17 20 25 25 24
8 8 8 8 7 4 5 4 4 3 3 3 2 4 1 1 1 1 1 0 1 2 4 3 4 5 5 4 7 8 9 9 8 9 12 12 18 18 19 29 30 25 24
5 6 8 8 6 4 4 5 4 4 3 3 3 2 3 0 0 1 1 1 1 1 3 3 3 3 4 4 4 6 9 9 9 12 15 13 17 26 32 30 29 26 23
4 6 7 6 5 4 4 4 4 5 5 3 3 3 3 3 3 2 2 1 1 1 1 1 1 1 2 4 6 7 8 8 10 14 14 24 30 31 29 29 26 25 23
3 4 5 5 3 4 5 4 4 4 4 4 5 4 3 3 2 2 3 2 2 1 0 1 1 1 1 3 4 7 8 9 13 18 21 24 28 28 27 26 27 25 22
5 5 5 5 5 5 4 4 2 3 4 3 5 5 4 4 3 3 4 4 2 2 1 1 0 1 2 2 3 7 5 11 16 21 22 25 27 26 25 22 20 19 18
4 5 5 5 5 4 4 4 3 4 3 4 5 5 5 3 4 4 2 2 3 3 1 1 1 1 2 3 5 5 7 13 18 20 25 23 21 21 17 15 15 13 12
5 6 5 5 5 4 4 4 3 3 4 3 3 6 5 3 4 3 4 3 1 3 3 1 1 1 3 3 6 6 8 16 24 24 25 29 19 16 17 19 16 11 12
6 6 5 4 3 4 4 3 4 4 5 4 4 5 5 5 3 4 4 3 3 2 5 2 1 5 4 8 6 7 8 11 15 29 25 24 20 18 17 13 13 12 13
5 5 4 2 3 4 4 4 4 4 5 6 6 5 4 4 4 4 3 5 5 3 5 7 2 3 4 8 9 12 10 10 13 24 24 24 20 17 16 13 13 12 12
5 4 4 3 3 2 1 2 3 3 4 4 5 5 4 6 5 5 5 5 5 5 7 7 5 3 4 8 12 12 15 15 12 25 21 21 20 15 12 12 13 13 12
5 2 4 4 4 3 2 2 2 2 3 2 3 5 5 8 7 7 7 8 8 9 9 9 9 7 6 6 11 13 13 13 12 10 12 10 13 13 10 10 12 12 11
3 4 5 5 4 4 3 3 3 2 4 3 2 3 6 8 9 7 7 8 11 10 10 9 9 9 8 8 12 9 14 12 9 7 8 6 6 5 5 7 9 12 11
4 5 5 5 4 3 7 6 2 3 4 5 5 7 6 10 9 11 10 8 10 11 12 9 9 11 10 9 9 11 13 12 7 4 6 4 3 4 3 3 6 10 12
4 5 5 4 3 3 6 4 4 3 5 6 8 7 7 6 9 9 11 13 12 12 10 12 13 12 12 12 12 12 12 7 6 6 9 4 2 5 3 3 6 10 11
4 5 4 3 2 4 4 7 8 6 6 7 7 8 8 8 9 10 11 11 10 11 10 9 11 12 13 12 10 10 11 11 9 5 3 4 1 2 2 1 3 6 8
3 3 3 3 2 5 4 6 7 5 7 7 6 7 8 9 9 11 13 13 14 11 15 18 17 17 16 15 11 11 10 12 8 3 2 4 2 3 1 2 3 5 7
3 3 4 3 4 5 5 8 7 5 6 5 6 7 11 10 11 13 14 13 14 12 15 16 13 13 13 10 8 5 9 11 9 6 3 4 3 3 3 2 3 4 5
Wind_Direction
186 178 188 179 205 197 193 196 206 198 207 219 223 230 236 239 242 253 253 257 259 241 243 234 230 219 225 217 216 223 221 211 198 189 180 186 171 176 185 181 172 166 158
178 190 180 205 207 188 195 201 188 205 213 210 233 229 237 238 242 245 249 257 263 256 241 232 233 216 215 217 212 216 223 215 205 193 187 173 158 191 193 182 178 156 154
177 168 182 198 211 187 217 174 202 194 221 228 245 237 236 238 238 246 248 249 262 265 254 235 209 200 219 221 219 213 216 230 213 199 189 194 173 181 150 161 163 152 147
162 168 184 177 190 192 173 190 182 190 220 216 237 243 234 230 239 243 261 257 250 260 257 213 198 204 210 220 227 219 210 218 217 206 191 194 175 155 137 149 151 147 143
177 186 179 192 197 185 213 169 174 178 204 231 242 247 243 235 235 242 253 256 240 244 237 217 203 205 210 226 232 228 211 208 209 206 201 192 162 140 158 167 156 151 139
182 176 184 162 152 166 172 154 177 178 221 253 273 270 252 243 228 231 236 253 235 228 217 218 199 221 224 216 235 230 224 211 210 206 198 181 167 170 177 181 155 147 140
180 182 162 165 155 184 180 175 128 183 226 216 274 280 264 237 235 223 217 233 226 213 195 184 220 203 241 239 223 230 224 219 210 208 187 172 176 170 165 154 154 140 128
165 170 172 187 159 148 168 159 155 174 227 196 197 252 309 328 265 232 216 215 220 186 193 191 208 211 218 211 217 217 218 214 215 206 174 167 174 167 169 159 153 127 127
169 165 160 154 157 161 173 170 173 174 192 186 209 166 173 245 311 15 201 194 209 207 198 191 205 199 198 201 207 225 203 198 203 189 170 175 173 167 160 150 128 126 126
160 164 143 139 154 152 168 180 170 165 157 186 197 219 186 168 177 22 25 214 175 217 230 200 204 201 204 194 204 207 192 191 190 173 168 168 153 152 144 127 128 123 127
147 137 142 149 143 152 166 169 159 176 181 175 176 153 205 212 128 102 76 3 57 303 241 221 202 203 198 193 192 196 189 184 175 155 160 166 145 136 131 133 134 140 133
126 129 132 129 142 146 161 181 182 182 190 188 184 183 174 171 190 171 119 94 34 265 194 91 176 174 185 186 189 192 186 176 165 148 154 138 128 132 134 138 147 138 151
117 134 118 136 136 157 185 177 178 199 191 193 191 204 202 198 160 146 120 128 145 134 125 96 155 82 199 198 208 188 179 173 156 140 138 138 136 138 141 151 144 153 157
132 146 132 139 158 181 182 184 184 199 202 212 209 212 213 208 181 163 154 153 137 135 75 135 134 130 210 194 193 167 146 156 148 139 139 139 141 147 144 144 148 154 149
134 140 150 154 173 180 183 190 201 215 193 206 214 211 215 207 195 179 166 158 147 155 167 214 103 101 151 145 123 128 143 147 138 134 136 129 130 134 135 134 130 141 142
132 137 139 157 178 192 196 197 212 211 221 221 219 210 206 193 186 180 182 170 158 136 135 143 117 92 111 102 129 129 140 130 121 116 129 123 118 113 119 128 135 133 126
136 143 153 162 185 213 218 201 230 214 219 215 222 215 215 182 180 182 180 166 174 136 120 95 82 101 73 94 90 97 113 117 121 122 124 120 123 125 121 119 119 128 129
135 132 147 167 239 246 220 209 237 219 213 207 221 212 221 163 170 177 166 168 171 133 133 121 69 82 84 100 98 97 96 107 117 118 117 114 108 102 102 113 120 120 116
130 154 151 197 154 85 29 246 231 230 207 221 216 198 180 148 156 148 139 137 133 129 130 120 113 94 85 108 97 97 102 97 99 93 93 101 99 100 115 118 111 113 117
141 151 130 120 84 78 21 328 242 187 143 151 194 193 164 158 163 145 138 136 131 120 116 114 116 111 107 114 110 118 105 104 107 106 89 88 105 99 88 98 110 114 127
154 139 116 88 74 62 40 13 69 99 110 83 62 116 139 153 147 142 143 142 139 130 128 128 125 121 121 131 125 121 113 113 94 109 109 96 103 86 73 100 127 129 120
145 131 104 102 84 64 7 31 49 101 116 105 90 85 104 112 110 110 110 115 146 140 138 132 137 137 134 126 130 128 126 133 128 112 106 74 85 89 86 92 104 122 127
139 119 107 104 86 49 12 92 86 100 106 111 109 107 98 103 113 111 98 94 87 112 120 138 138 141 132 138 136 128 126 120 112 121 116 87 65 94 35 64 123 142 146
156 125 117 99 83 48 24 100 103 94 96 97 108 121 124 120 126 121 116 103 99 116 127 127 125 130 127 124 123 121 119 108 94 84 99 97 75 97 105 100 165 150 152
112 117 117 130 89 66 38 113 112 95 98 96 108 108 112 118 123 111 111 107 98 86 76 85 91 97 97 102 122 122 129 129 122 122 71 114 130 98 148 170 167 177 158
128 126 120 100 86 86 71 126 109 108 102 94 83 96 99 120 118 114 114 115 111 109 109 105 101 93 108 109 86 119 145 137 131 134 163 107 146 163 180 182 182 184 189